CST,Max TemperatureF,Mean TemperatureF,Min TemperatureF,Max Dew PointF,MeanDew PointF,Min DewpointF,Max Humidity, Mean Humidity, Min Humidity, Max Sea Level PressureIn, Mean Sea Level PressureIn, Min Sea Level PressureIn, Max VisibilityMiles, Mean VisibilityMiles, Min VisibilityMiles, Max Wind SpeedMPH, Mean Wind SpeedMPH, Max Gust SpeedMPH,PrecipitationIn, CloudCover, Events, WindDirDegrees
2012-11-1,52,38,24,31,25,20,85,61,37,29.94,29.89,29.84,10,10,10,14,7,17,0.00,4,,299
2012-11-2,47,36,25,31,27,24,92,67,42,30.16,30.08,29.94,10,10,10,13,6,16,0.00,0,,4
2012-11-3,47,36,24,36,32,25,92,76,60,30.24,30.20,30.15,10,10,9,13,5,17,0.00,6,,50
2012-11-4,48,36,23,30,28,23,100,73,46,30.27,30.23,30.20,10,9,7,14,5,17,0.00,3,,354
2012-11-5,43,32,20,33,26,19,100,81,62,30.22,30.20,30.14,10,8,1,10,4,13,0.00,5,,81
2012-11-6,39,31,22,39,34,21,100,91,82,30.12,29.95,29.88,10,4,1,12,5,15,0.10,7,Rain,155
2012-11-7,45,42,39,40,39,39,100,92,83,30.18,30.06,29.90,4,3,1,9,4,12,0.02,8,Rain,358
2012-11-8,47,41,34,39,36,33,100,83,65,30.23,30.16,30.11,8,6,2,15,6,20,0.00,5,,199
2012-11-9,55,44,32,46,39,31,100,81,61,30.12,30.05,29.99,8,5,2,12,6,15,0.00,4,,127
2012-11-10,64,56,48,58,51,46,93,79,64,29.99,29.92,29.86,10,8,2,25,12,32,0.27,5,Rain-Thunderstorm,157
2012-11-11,67,52,36,55,48,34,100,82,63,29.98,29.87,29.72,10,8,2,38,18,47,0.47,6,Rain,213
2012-11-12,36,31,26,34,24,19,92,77,61,30.38,30.16,29.96,10,10,6,26,18,32,T,6,Rain,263
2012-11-13,39,29,19,25,21,17,91,71,50,30.54,30.48,30.38,10,10,10,13,4,16,0.00,0,,251
2012-11-14,45,36,26,28,26,23,92,71,49,30.54,30.47,30.40,10,10,8,15,6,18,0.00,1,,149
2012-11-15,47,37,27,32,28,25,92,73,53,30.43,30.38,30.34,9,7,3,9,3,13,0.00,0,,169
2012-11-16,53,39,24,34,29,22,92,71,50,30.50,30.46,30.39,10,7,4,9,2,10,0.00,0,,138
2012-11-17,53,39,25,50,31,24,92,70,48,30.57,30.51,30.46,7,6,4,13,5,16,0.00,0,,135
2012-11-18,54,41,28,37,33,27,92,71,50,30.45,30.40,30.33,9,7,4,12,5,14,0.00,0,,133
2012-11-19,57,46,34,42,38,32,96,76,55,30.32,30.22,30.11,10,9,6,15,7,17,T,3,,156
2012-11-20,57,45,32,47,40,32,100,84,67,30.19,30.14,30.08,9,4,0,12,2,14,0.00,4,Fog,325
2012-11-21,53,43,33,46,40,33,100,89,77,30.26,30.17,30.10,5,2,0,12,5,14,0.01,2,Fog,185
2012-11-22,63,49,34,51,41,35,100,76,52,30.09,29.98,29.80,10,4,0,29,14,38,0.19,2,Fog-Rain,176
2012-11-23,39,33,26,34,23,17,85,74,63,30.25,30.08,29.92,10,10,10,33,20,44,0.00,6,,291
2012-11-24,32,29,25,22,19,16,75,69,63,30.29,30.19,30.01,10,10,10,17,8,22,0.00,6,,271
2012-11-25,43,33,23,27,25,21,88,70,51,30.10,29.95,29.88,10,10,10,15,7,18,0.00,2,,280
2012-11-26,34,26,18,25,19,14,85,67,49,30.41,30.28,30.11,10,10,9,13,6,16,0.00,3,,328
2012-11-27,32,23,13,17,13,9,88,68,47,30.46,30.37,30.29,10,10,10,10,6,13,0.00,2,,256
2012-11-28,44,32,19,24,21,15,88,65,41,30.41,30.34,30.28,10,10,10,14,6,16,0.00,1,,236
2012-11-29,51,37,23,34,29,21,92,72,52,30.28,30.18,30.10,10,9,5,14,7,17,0.00,2,,158
2012-11-30,51,42,32,36,34,30,100,77,54,30.16,30.10,30.06,10,8,3,14,5,16,0.00,3,,88